LAN3201 SKBO-SEQM

Flight info

Callsign LAN3201
Flight time 1h 6m
Altitude 23000
Route VAPOM4R OREGA Z009 PPN/N0419F240 W48 MER G675 IPI/N0411F230 G675 QIT
Aircraft A320/M-SDE3FGHIRWY/LB1

Departure

Time 2026-05-07 20:34
Airport El Dorado International Airport (SKBO)

Arrival

Time 2026-05-07 21:40
Airport Mariscal Sucre International Airport (SEQM)
Time Latitude Longitude Altitude Speed Heading
2026-05-07 19:38 4.69765 -74.13845 8370 ft 0 kts 217°
2026-05-07 20:17 4.69778 -74.13835 8370 ft 4 kts 217°
2026-05-07 20:18 4.69800 -74.13819 8370 ft 4 kts 217°
2026-05-07 20:18 4.69820 -74.13802 8370 ft 4 kts 236°
2026-05-07 20:18 4.69828 -74.13779 8370 ft 4 kts 283°
2026-05-07 20:18 4.69823 -74.13765 8370 ft 1 kts 306°
2026-05-07 20:19 4.69822 -74.13764 8370 ft 0 kts 306°
2026-05-07 20:22 4.69824 -74.13767 8370 ft 3 kts 306°
2026-05-07 20:22 4.69832 -74.13778 8370 ft 2 kts 306°
2026-05-07 20:22 4.69866 -74.13826 8370 ft 12 kts 306°
2026-05-07 20:23 4.69914 -74.13890 8370 ft 12 kts 307°
2026-05-07 20:23 4.69964 -74.13956 8370 ft 11 kts 307°
2026-05-07 20:23 4.70005 -74.14009 8370 ft 8 kts 308°
2026-05-07 20:23 4.70051 -74.14039 8370 ft 10 kts
2026-05-07 20:24 4.70110 -74.13999 8369 ft 11 kts 41°
2026-05-07 20:24 4.70176 -74.13999 8370 ft 11 kts 317°
2026-05-07 20:24 4.70223 -74.14061 8370 ft 13 kts 307°
2026-05-07 20:24 4.70289 -74.14149 8370 ft 17 kts 307°
2026-05-07 20:25 4.70367 -74.14252 8370 ft 20 kts 307°
2026-05-07 20:25 4.70454 -74.14366 8370 ft 21 kts 307°
2026-05-07 20:25 4.70545 -74.14484 8370 ft 22 kts 307°
2026-05-07 20:25 4.70636 -74.14604 8371 ft 22 kts 307°
2026-05-07 20:26 4.70728 -74.14724 8370 ft 22 kts 307°
2026-05-07 20:26 4.70820 -74.14845 8370 ft 22 kts 306°
2026-05-07 20:26 4.70911 -74.14969 8370 ft 22 kts 306°
2026-05-07 20:26 4.71002 -74.15092 8370 ft 22 kts 307°
2026-05-07 20:27 4.71094 -74.15211 8371 ft 21 kts 308°
2026-05-07 20:27 4.71183 -74.15328 8370 ft 20 kts 305°
2026-05-07 20:27 4.71178 -74.15421 8370 ft 14 kts 220°
2026-05-07 20:27 4.71106 -74.15478 8370 ft 13 kts 218°
2026-05-07 20:28 4.71023 -74.15543 8370 ft 17 kts 218°
2026-05-07 20:28 4.70919 -74.15624 8370 ft 21 kts 218°
2026-05-07 20:28 4.70795 -74.15719 8370 ft 24 kts 217°
2026-05-07 20:28 4.70668 -74.15816 8370 ft 18 kts 221°
2026-05-07 20:29 4.70689 -74.15923 8370 ft 18 kts 307°
2026-05-07 20:29 4.70774 -74.16033 8371 ft 20 kts 308°
2026-05-07 20:29 4.70861 -74.16146 8370 ft 21 kts 308°
2026-05-07 20:29 4.70950 -74.16259 8370 ft 21 kts 308°
2026-05-07 20:30 4.71036 -74.16375 8370 ft 21 kts 307°
2026-05-07 20:30 4.71125 -74.16490 8371 ft 21 kts 308°
2026-05-07 20:30 4.71215 -74.16607 8370 ft 21 kts 307°
2026-05-07 20:30 4.71285 -74.16707 8370 ft 8 kts 300°
2026-05-07 20:31 4.71287 -74.16712 8371 ft 0 kts 292°
2026-05-07 20:31 4.71261 -74.16795 8371 ft 17 kts 250°
2026-05-07 20:31 4.71252 -74.16833 8370 ft 0 kts 255°
2026-05-07 20:32 4.71240 -74.16853 8371 ft 18 kts 233°
2026-05-07 20:32 4.71127 -74.16894 8371 ft 8 kts 176°
2026-05-07 20:32 4.71058 -74.16889 8371 ft 11 kts 176°
2026-05-07 20:32 4.71013 -74.16859 8371 ft 0 kts 129°
2026-05-07 20:33 4.70971 -74.16805 8372 ft 35 kts 127°
2026-05-07 20:33 4.70689 -74.16428 8374 ft 98 kts 127°
2026-05-07 20:34 4.70170 -74.15742 8371 ft 148 kts 127°
2026-05-07 20:34 4.69460 -74.14805 8377 ft 188 kts 127°
2026-05-07 20:34 4.68668 -74.13755 9051 ft 186 kts 127°
2026-05-07 20:34 4.67730 -74.12876 9812 ft 187 kts 154°
2026-05-07 20:35 4.66459 -74.12732 10440 ft 191 kts 199°
2026-05-07 20:35 4.65415 -74.13536 10791 ft 201 kts 240°
2026-05-07 20:35 4.64819 -74.14875 10949 ft 220 kts 244°
2026-05-07 20:35 4.64100 -74.16325 11075 ft 239 kts 240°
2026-05-07 20:36 4.63281 -74.17809 11292 ft 252 kts 239°
2026-05-07 20:36 4.62402 -74.19345 11679 ft 256 kts 238°
2026-05-07 20:36 4.61577 -74.20959 12075 ft 260 kts 251°
2026-05-07 20:36 4.61162 -74.22769 12287 ft 274 kts 257°
2026-05-07 20:37 4.60773 -74.24725 12401 ft 298 kts 258°
2026-05-07 20:37 4.60352 -74.26823 12681 ft 314 kts 254°
2026-05-07 20:37 4.59487 -74.28846 13174 ft 319 kts 240°
2026-05-07 20:37 4.58444 -74.30827 13762 ft 324 kts 241°
2026-05-07 20:38 4.57410 -74.32849 14321 ft 327 kts 242°
2026-05-07 20:38 4.56376 -74.34893 14835 ft 330 kts 242°
2026-05-07 20:38 4.55336 -74.36954 15400 ft 332 kts 242°
2026-05-07 20:38 4.54289 -74.39027 15935 ft 335 kts 242°
2026-05-07 20:39 4.53227 -74.41119 16465 ft 338 kts 242°
2026-05-07 20:39 4.52150 -74.43226 16998 ft 340 kts 242°
2026-05-07 20:39 4.51065 -74.45343 17507 ft 343 kts 242°
2026-05-07 20:39 4.49970 -74.47476 18062 ft 345 kts 242°
2026-05-07 20:40 4.48870 -74.49620 18537 ft 348 kts 242°
2026-05-07 20:40 4.47759 -74.51790 18994 ft 350 kts 242°
2026-05-07 20:40 4.46643 -74.53974 19346 ft 357 kts 242°
2026-05-07 20:40 4.45487 -74.56233 19447 ft 372 kts 242°
2026-05-07 20:41 4.44281 -74.58580 19541 ft 386 kts 242°
2026-05-07 20:41 4.43031 -74.61018 19659 ft 399 kts 243°
2026-05-07 20:41 4.41747 -74.63524 19786 ft 410 kts 243°
2026-05-07 20:41 4.40436 -74.66083 19824 ft 415 kts 243°
2026-05-07 20:42 4.39117 -74.68658 19833 ft 416 kts 243°
2026-05-07 20:42 4.37795 -74.71233 19817 ft 416 kts 242°
2026-05-07 20:42 4.36468 -74.73813 19813 ft 416 kts 242°
2026-05-07 20:42 4.35124 -74.76420 19811 ft 416 kts 242°
2026-05-07 20:43 4.33814 -74.78960 19810 ft 416 kts 242°
2026-05-07 20:43 4.32472 -74.81567 19813 ft 416 kts 242°
2026-05-07 20:43 4.31144 -74.84145 19811 ft 416 kts 242°
2026-05-07 20:43 4.29818 -74.86721 19810 ft 416 kts 242°
2026-05-07 20:44 4.28488 -74.89298 19807 ft 416 kts 242°
2026-05-07 20:44 4.27158 -74.91872 19815 ft 417 kts 242°
2026-05-07 20:44 4.25827 -74.94451 19829 ft 417 kts 242°
2026-05-07 20:44 4.24498 -74.97031 19831 ft 417 kts 242°
2026-05-07 20:45 4.23170 -74.99612 19840 ft 417 kts 242°
2026-05-07 20:45 4.21843 -75.02200 19846 ft 417 kts 242°
2026-05-07 20:45 4.20451 -75.04743 19924 ft 417 kts 236°
2026-05-07 20:45 4.18728 -75.07095 20197 ft 420 kts 232°
2026-05-07 20:46 4.16956 -75.09438 20618 ft 422 kts 232°
2026-05-07 20:46 4.15188 -75.11798 21031 ft 425 kts 232°
2026-05-07 20:46 4.13416 -75.14171 21411 ft 427 kts 233°
2026-05-07 20:46 4.11631 -75.16565 21796 ft 430 kts 233°
2026-05-07 20:47 4.09835 -75.18970 22159 ft 432 kts 232°
2026-05-07 20:47 4.08026 -75.21388 22509 ft 435 kts 232°
2026-05-07 20:47 4.06206 -75.23818 22878 ft 437 kts 232°
2026-05-07 20:47 4.04377 -75.26259 23246 ft 439 kts 232°
2026-05-07 20:48 4.02539 -75.28713 23590 ft 442 kts 232°
2026-05-07 20:48 4.00692 -75.31180 23893 ft 444 kts 232°
2026-05-07 20:48 3.98812 -75.33688 24207 ft 445 kts 232°
2026-05-07 20:48 3.96969 -75.36144 24516 ft 447 kts 232°
2026-05-07 20:49 3.95078 -75.38670 24826 ft 449 kts 232°
2026-05-07 20:49 3.93202 -75.41179 25132 ft 450 kts 232°
2026-05-07 20:49 3.91322 -75.43691 25437 ft 452 kts 232°
2026-05-07 20:49 3.89436 -75.46210 25722 ft 453 kts 232°
2026-05-07 20:50 3.87500 -75.48711 26004 ft 455 kts 228°
2026-05-07 20:50 3.85245 -75.50926 26290 ft 455 kts 219°
2026-05-07 20:50 3.82752 -75.52892 26570 ft 457 kts 217°
2026-05-07 20:50 3.80248 -75.54857 26857 ft 458 kts 218°
2026-05-07 20:51 3.77736 -75.56833 27143 ft 460 kts 218°
2026-05-07 20:51 3.75218 -75.58815 27421 ft 462 kts 218°
2026-05-07 20:51 3.72690 -75.60805 27706 ft 463 kts 218°
2026-05-07 20:51 3.70154 -75.62806 27967 ft 465 kts 218°
2026-05-07 20:52 3.67613 -75.64813 28232 ft 466 kts 218°
2026-05-07 20:52 3.65061 -75.66830 28493 ft 468 kts 218°
2026-05-07 20:52 3.62504 -75.68850 28726 ft 469 kts 218°
2026-05-07 20:52 3.59938 -75.70875 28977 ft 470 kts 218°
2026-05-07 20:53 3.57362 -75.72905 29214 ft 472 kts 218°
2026-05-07 20:53 3.54784 -75.74935 29450 ft 473 kts 218°
2026-05-07 20:53 3.52186 -75.76980 29690 ft 475 kts 218°
2026-05-07 20:53 3.49594 -75.79021 29935 ft 475 kts 218°
2026-05-07 20:54 3.46995 -75.81070 30267 ft 474 kts 218°
2026-05-07 20:54 3.44379 -75.83134 30585 ft 472 kts 218°
2026-05-07 20:54 3.41835 -75.85139 30892 ft 470 kts 218°
2026-05-07 20:54 3.39235 -75.87186 31213 ft 469 kts 218°
2026-05-07 20:55 3.36678 -75.89199 31528 ft 467 kts 218°
2026-05-07 20:55 3.34127 -75.91206 31860 ft 465 kts 218°
2026-05-07 20:55 3.31585 -75.93203 32154 ft 464 kts 218°
2026-05-07 20:55 3.29049 -75.95196 32478 ft 462 kts 218°
2026-05-07 20:56 3.26532 -75.97176 32799 ft 461 kts 218°
2026-05-07 20:56 3.24013 -75.99160 33108 ft 459 kts 218°
2026-05-07 20:56 3.21505 -76.01135 33412 ft 459 kts 218°
2026-05-07 20:56 3.19001 -76.03106 33711 ft 458 kts 218°
2026-05-07 20:57 3.16505 -76.05073 34024 ft 457 kts 218°
2026-05-07 20:57 3.14005 -76.07042 34289 ft 456 kts 218°
2026-05-07 20:57 3.11514 -76.09002 34526 ft 456 kts 218°
2026-05-07 20:57 3.09022 -76.10963 34737 ft 456 kts 218°
2026-05-07 20:58 3.06528 -76.12925 34933 ft 456 kts 218°
2026-05-07 20:58 3.01526 -76.16861 35038 ft 458 kts 218°
2026-05-07 20:59 2.96521 -76.20796 35025 ft 458 kts 218°
2026-05-07 20:59 2.91474 -76.24700 35020 ft 459 kts 218°
2026-05-07 21:00 2.86412 -76.28593 35022 ft 459 kts 218°
2026-05-07 21:00 2.81359 -76.32492 35019 ft 459 kts 218°
2026-05-07 21:01 2.76311 -76.36397 35019 ft 458 kts 218°
2026-05-07 21:01 2.71273 -76.40295 35027 ft 458 kts 217°
2026-05-07 21:02 2.66204 -76.44214 35060 ft 457 kts 217°
2026-05-07 21:02 2.61202 -76.48133 35093 ft 457 kts 218°
2026-05-07 21:03 2.56280 -76.52143 35120 ft 456 kts 219°
2026-05-07 21:03 2.51367 -76.56167 35141 ft 456 kts 219°
2026-05-07 21:04 2.46439 -76.60157 35139 ft 456 kts 218°
2026-05-07 21:04 2.41513 -76.64143 35137 ft 456 kts 219°
2026-05-07 21:05 2.36599 -76.68144 35125 ft 455 kts 219°
2026-05-07 21:05 2.31686 -76.72139 35087 ft 455 kts 218°
2026-05-07 21:06 2.27603 -76.75465 35058 ft 455 kts 219°
2026-05-07 21:06 2.22673 -76.79483 35023 ft 454 kts 219°
2026-05-07 21:07 2.17770 -76.83474 34979 ft 454 kts 219°
2026-05-07 21:07 2.12880 -76.87451 34972 ft 453 kts 219°
2026-05-07 21:08 2.07996 -76.91435 34967 ft 453 kts 219°
2026-05-07 21:08 2.03109 -76.95418 34956 ft 453 kts 219°
2026-05-07 21:09 1.98226 -76.99388 34950 ft 453 kts 219°
2026-05-07 21:09 1.93334 -77.03364 34943 ft 453 kts 219°
2026-05-07 21:10 1.88451 -77.07345 34946 ft 453 kts 219°
2026-05-07 21:10 1.83554 -77.11329 34951 ft 453 kts 219°
2026-05-07 21:11 1.78470 -77.15036 34957 ft 453 kts 208°
2026-05-07 21:11 1.69649 -77.18394 34991 ft 453 kts 199°
2026-05-07 21:12 1.63697 -77.20489 35036 ft 453 kts 200°
2026-05-07 21:12 1.57751 -77.22598 35077 ft 453 kts 200°
2026-05-07 21:13 1.51768 -77.24723 35114 ft 454 kts 200°
2026-05-07 21:13 1.45815 -77.26827 35135 ft 454 kts 200°
2026-05-07 21:14 1.39938 -77.29095 35135 ft 452 kts 208°
2026-05-07 21:14 1.34724 -77.32594 35137 ft 452 kts 216°
2026-05-07 21:15 1.29615 -77.36259 35124 ft 452 kts 216°
2026-05-07 21:15 1.24501 -77.39914 35110 ft 452 kts 216°
2026-05-07 21:16 1.19386 -77.43567 35096 ft 452 kts 216°
2026-05-07 21:16 1.14275 -77.47219 35095 ft 452 kts 216°
2026-05-07 21:17 1.09169 -77.50879 35183 ft 452 kts 216°
2026-05-07 21:17 1.04055 -77.54544 35258 ft 452 kts 216°
2026-05-07 21:18 0.98936 -77.58204 35327 ft 453 kts 216°
2026-05-07 21:18 0.93808 -77.61861 35397 ft 453 kts 216°
2026-05-07 21:19 0.88641 -77.65552 35400 ft 454 kts 216°
2026-05-07 21:19 0.86099 -77.67430 35280 ft 454 kts 220°
2026-05-07 21:19 0.83772 -77.69552 35103 ft 453 kts 223°
2026-05-07 21:20 0.81470 -77.71704 34873 ft 453 kts 223°
2026-05-07 21:20 0.79169 -77.73850 34652 ft 452 kts 223°
2026-05-07 21:20 0.76866 -77.75992 34433 ft 452 kts 223°
2026-05-07 21:20 0.74559 -77.78137 34163 ft 453 kts 223°
2026-05-07 21:21 0.72253 -77.80286 33874 ft 454 kts 223°
2026-05-07 21:21 0.69940 -77.82442 33588 ft 455 kts 223°
2026-05-07 21:21 0.67625 -77.84596 33300 ft 456 kts 223°
2026-05-07 21:21 0.65299 -77.86761 33012 ft 457 kts 222°
2026-05-07 21:22 0.62968 -77.88928 32729 ft 458 kts 222°
2026-05-07 21:22 0.60635 -77.91097 32448 ft 459 kts 222°
2026-05-07 21:22 0.58295 -77.93272 32174 ft 460 kts 222°
2026-05-07 21:22 0.55947 -77.95453 31894 ft 462 kts 222°
2026-05-07 21:23 0.53592 -77.97645 31646 ft 463 kts 222°
2026-05-07 21:23 0.51233 -77.99843 31412 ft 464 kts 222°
2026-05-07 21:23 0.48875 -78.02041 30937 ft 465 kts 222°
2026-05-07 21:23 0.46486 -78.04269 29981 ft 471 kts 222°
2026-05-07 21:24 0.44105 -78.06487 29293 ft 466 kts 222°
2026-05-07 21:24 0.41744 -78.08684 28606 ft 462 kts 222°
2026-05-07 21:24 0.39393 -78.10868 27922 ft 459 kts 221°
2026-05-07 21:24 0.37062 -78.13034 27250 ft 457 kts 221°
2026-05-07 21:25 0.34739 -78.15191 26581 ft 455 kts 221°
2026-05-07 21:25 0.32430 -78.17337 25930 ft 454 kts 221°
2026-05-07 21:25 0.30119 -78.19486 25271 ft 452 kts 221°
2026-05-07 21:25 0.27790 -78.21655 24616 ft 451 kts 221°
2026-05-07 21:26 0.25501 -78.23788 23987 ft 450 kts 222°
2026-05-07 21:26 0.23219 -78.25917 23300 ft 449 kts 221°
2026-05-07 21:26 0.20942 -78.28037 22714 ft 445 kts 221°
2026-05-07 21:26 0.18694 -78.30131 22182 ft 440 kts 221°
2026-05-07 21:27 0.16463 -78.32207 21652 ft 436 kts 221°
2026-05-07 21:27 0.14253 -78.34263 21149 ft 431 kts 221°
2026-05-07 21:27 0.12074 -78.36289 20644 ft 426 kts 221°
2026-05-07 21:27 0.09918 -78.38296 20146 ft 422 kts 221°
2026-05-07 21:28 0.07783 -78.40284 19652 ft 417 kts 221°
2026-05-07 21:28 0.05670 -78.42250 19151 ft 413 kts 221°
2026-05-07 21:28 0.03579 -78.44194 18822 ft 405 kts 221°
2026-05-07 21:28 0.01549 -78.46081 18714 ft 392 kts 221°
2026-05-07 21:29 -0.00416 -78.47906 18609 ft 380 kts 221°
2026-05-07 21:29 -0.02474 -78.49471 18498 ft 365 kts 207°
2026-05-07 21:29 -0.04772 -78.50413 18334 ft 351 kts 192°
2026-05-07 21:29 -0.07140 -78.50722 18207 ft 338 kts 177°
2026-05-07 21:30 -0.09447 -78.50531 18060 ft 329 kts 172°
2026-05-07 21:30 -0.11689 -78.50294 18003 ft 318 kts 172°
2026-05-07 21:30 -0.13845 -78.50068 18005 ft 305 kts 172°
2026-05-07 21:30 -0.15933 -78.49872 17877 ft 298 kts 172°
2026-05-07 21:31 -0.17977 -78.49705 17701 ft 292 kts 173°
2026-05-07 21:31 -0.19992 -78.49551 17406 ft 289 kts 173°
2026-05-07 21:31 -0.21995 -78.49402 17104 ft 288 kts 173°
2026-05-07 21:31 -0.23993 -78.49254 16831 ft 287 kts 173°
2026-05-07 21:32 -0.25977 -78.49103 16568 ft 285 kts 173°
2026-05-07 21:32 -0.27953 -78.48950 16269 ft 284 kts 173°
2026-05-07 21:32 -0.29947 -78.48795 16021 ft 283 kts 173°
2026-05-07 21:32 -0.31903 -78.48640 15735 ft 281 kts 173°
2026-05-07 21:33 -0.33846 -78.48486 15449 ft 280 kts 173°
2026-05-07 21:33 -0.35758 -78.48229 15155 ft 275 kts 162°
2026-05-07 21:33 -0.37500 -78.47489 14871 ft 271 kts 148°
2026-05-07 21:33 -0.39078 -78.46464 14606 ft 268 kts 142°
2026-05-07 21:34 -0.40483 -78.45291 14490 ft 259 kts 135°
2026-05-07 21:34 -0.41702 -78.44009 14375 ft 251 kts 128°
2026-05-07 21:34 -0.42460 -78.42498 14236 ft 243 kts 97°
2026-05-07 21:34 -0.42225 -78.40856 14004 ft 244 kts 64°
2026-05-07 21:35 -0.41067 -78.39643 13690 ft 246 kts 31°
2026-05-07 21:35 -0.39531 -78.38874 13201 ft 248 kts 26°
2026-05-07 21:35 -0.37957 -78.38163 12775 ft 248 kts 26°
2026-05-07 21:35 -0.36386 -78.37470 12367 ft 246 kts 25°
2026-05-07 21:36 -0.34828 -78.36780 11952 ft 244 kts 25°
2026-05-07 21:36 -0.33282 -78.36091 11579 ft 242 kts 24°
2026-05-07 21:36 -0.31759 -78.35406 11209 ft 238 kts 22°
2026-05-07 21:36 -0.30227 -78.34824 10832 ft 233 kts 10°
2026-05-07 21:37 -0.28659 -78.34749 10708 ft 217 kts 356°
2026-05-07 21:37 -0.27165 -78.34814 10571 ft 213 kts 357°
2026-05-07 21:37 -0.25707 -78.34874 10302 ft 205 kts 357°
2026-05-07 21:37 -0.24324 -78.34933 10054 ft 191 kts 357°
2026-05-07 21:38 -0.23055 -78.34987 9796 ft 175 kts 357°
2026-05-07 21:38 -0.21867 -78.35037 9568 ft 167 kts 357°
2026-05-07 21:38 -0.20714 -78.35087 9349 ft 165 kts 357°
2026-05-07 21:38 -0.19569 -78.35136 9128 ft 164 kts 357°
2026-05-07 21:39 -0.18800 -78.35168 8973 ft 164 kts 357°
2026-05-07 21:39 -0.17667 -78.35225 8741 ft 161 kts 356°
2026-05-07 21:39 -0.16561 -78.35271 8458 ft 156 kts 358°
2026-05-07 21:39 -0.15492 -78.35319 8250 ft 152 kts 356°
2026-05-07 21:40 -0.14441 -78.35359 8008 ft 149 kts 358°
2026-05-07 21:40 -0.13441 -78.35401 7889 ft 120 kts 358°
2026-05-07 21:40 -0.12907 -78.35423 7872 ft 33 kts 358°
2026-05-07 21:40 -0.12698 -78.35433 7862 ft 30 kts 356°
2026-05-07 21:41 -0.12520 -78.35488 7852 ft 14 kts 329°
2026-05-07 21:41 -0.12437 -78.35542 7839 ft 16 kts 323°
2026-05-07 21:41 -0.12356 -78.35626 7836 ft 18 kts 288°
2026-05-07 21:41 -0.12362 -78.35761 7833 ft 20 kts 265°
2026-05-07 21:42 -0.12374 -78.35839 7836 ft 9 kts 265°
2026-05-07 21:42 -0.12376 -78.35900 7841 ft 9 kts 268°
2026-05-07 21:42 -0.12378 -78.35925 7841 ft 0 kts 267°